Tracking 19909 objects as of 22-Oct-2019
HD Live streaming from Space Station
objects crossing your sky now

FREGAT R/B

Track FREGAT R/B now!


NORAD ID: 37345
Int'l Code: 2011-001B
Perigee: 34,446.7 km
Apogee: 35,753.3 km
Inclination: 5.7 °
Period: 1,400.8 minutes
Semi major axis: 41470 km
RCS: 8.569 m2 (large)
Launch date: January 20, 2011
Source: Commonwealth of Independent States (former USSR) (CIS)
Launch site: TYURATAM MISSILE AND SPACE COMPLEX (TTMTR)

Note: This is a ROCKET BODY
aabbcc
Your satellite tracking list
Your tracking list is empty




NASA's NSSDC Master Catalog

Two Line Element Set (TLE):
1 37345U 11001B   19293.78251943 -.00000059 +00000-0 +00000-0 0  9993
2 37345 005.6772 058.5751 0157537 011.7839 205.5358 01.02798361035406
Source of the keplerian elements: AFSPC